STARLINK-4645, 53743

Orbit data source: Space-Track

STARLINK-4645, 53743 is a payload satellite owned by SpaceX/Seattle (US) in LEO that was launched on Mon, 05 Sep 2022 UTC via an FALCON 9 launch vehicle from the Air Force Eastern Test Range (AFETR). Payload-class satellites include a variety of spacecraft equipped with specific instruments for various scientific and technological missions. These include communications satellites like Starlink; space stations such as the ISS; scientific satellites like the Hubble; Earth observation satellites from companies like Planet Labs, Umbra, and HawkEye 360; GPS; miniature CubeSats for education and research; and military/defense satellites.

Loading next visibility...
Identifier
53743, 2022-107AV
Orbit
LEO
Country
Flag of USUS
Related business
Manufacturer
SpaceX/Seattle
Mission
Operational Commercial Communications
Bus & Motor
STARLINK, Unknown motor
Mass
305 kg wet, ~290 kg dry
Launch date (UTC)
2022-09-05 (4 years ago)
Launch vehicle
FALCON 9
Launch site
Air Force Eastern Test Range (AFETR)
Object type
Payload
Rocket body
Debris
Shape & HBR
Box + 1 Pan, 10.1 m
Radar Cross Section
13.562 m², Large (>1 m²)

Expand to show TLE details & history
Last TLE update: 2 days ago

TLE from 2 days ago
0 STARLINK-4645
1 53743U 22107AV  26171.41668980  .00081078  00000-0  45268-2 0  9994
2 53743  53.1595 162.9102 0001783 126.9553 131.8726 15.12832286  5824
Epoch: 2026-06-20T10:00Z
TLE epoch observation values (Epoch: 2026-06-20T10:00:01.998Z)
Latitude
-51.89692°
Longitude
-3.8974°
Altitude
546.395 km
Speed
7.588 km/s
True Right ascension
03h 38m 58s
True Declination
-51° 43' 29"
Sunlit
Object was in daylight at epoch
Visualization orbit readout
Latitude
Unknown
Longitude
Unknown
Altitude
Unknown
Speed
Unknown
Apparent Right ascension
Unknown
Apparent Declination
Unknown
Sunlit
N/A
Visualization observer readout
Local Sidereal Time
23:07:37
Azimuth
Unknown
Elevation
Unknown
Doppler factor
Unknown
Orbital elements
Apogee altitude
529.053 km
Perigee altitude
526.591 km
Semi-major axis
6,905.959 km
Eccentricity
0.00018
Inclination
53.1595°
RAAN
162.9102°
Arg. of periapsis
126.9553°
True anomaly
131.88781°
Mean anomaly
131.8726°
Eccentric anomaly
131.88021°
Mean motion
3.78188 °/min
Orbital period
95.19 mins
BSTAR
0.0045268
Loading maneuver chart data...
Computing Atmospheric mass density...

Documentation

Showing up to 5 results
|